SCP
0 0 0 0 0 0 0 0 0 0 0 0 0 0 0 0 0 0 0 0 0 0 0 0 0 0 0 0 0 0 0 0 0 0 0 0 0 0 0 0 0 0 0
0 0 0 0 0 0 0 0 0 0 0 0 0 0 0 0 0 0 0 0 0 0 0 0 0 0 0 0 0 0 0 0 0 0 0 0 0 0 0 0 0 0 0
0 0 0 0 0 0 0 0 0 0 0 0 0 0 0 0 0 0 0 0 0 0 0 0 0 0 0 0 0 0 0 0 0 0 0 0 0 0 0 0 0 0 0
0 0 0 0 0 0 0 0 0 0 0 0 0 0 0 0 0 0 0 0 0 0 0 0 0 0 0 0 0 0 0 0 0 0 0 0 0 0 0 0 0 0 0
0 0 0 0 0 0 0 0 0 0 0 0 0 0 0 0 0 0 0 0 0 0 0 0 0 0 0 0 0 0 0 0 0 0 0 0 0 0 0 0 0 0 0
0 0 0 0 0 0 0 0 0 0 0 0 0 0 0 0 0 0 0 0 0 0 0 0 0 0 0 0 0 0 0 0 0 0 0 0 0 0 0 0 0 0 0
0 0 0 0 0 0 0 0 0 0 0 0 0 0 0 0 0 0 0 0 0 0 0 0 0 0 0 0 0 0 0 0 0 0 0 0 0 0 0 0 0 0 0
0 0 0 0 0 0 0 0 0 0 0 0 0 0 0 0 0 0 0 0 0 0 0 0 0 0 0 0 0 0 0 0 0 0 0 0 0 0 0 0 0 0 0
0 0 0 0 0 0 0 0 0 0 0 0 0 0 0 0 0 0 0 0 0 0 0 0 0 0 0 0 0 0 0 0 0 0 0 0 0 0 0 0 0 0 0
0 0 0 0 0 0 0 0 0 0 0 0 0 0 0 0 0 0 0 0 0 0 0 0 0 0 0 0 0 0 0 0 0 0 0 0 0 0 0 0 0 0 0
0 0 0 0 0 0 0 0 0 0 0 0 0 0 0 0 0 0 0 0 0 0 0 0 0 0 0 0 0 0 0 0 0 0 0 0 0 0 0 0 0 0 0
0 0 0 0 0 0 0 0 0 0 0 0 0 0 0 0 0 0 0 0 0 0 0 0 0 0 0 0 0 0 0 0 0 0 0 0 0 0 0 0 0 0 0
0 0 0 0 0 0 0 0 0 0 0 0 0 0 0 0 0 0 0 0 0 0 0 0 0 0 0 0 0 0 0 0 0 0 0 0 0 0 0 0 0 0 0
0 0 0 0 0 0 0 0 0 0 0 0 0 0 0 0 0 0 0 0 0 0 0 0 0 0 0 0 0 0 0 0 0 0 0 0 0 0 0 0 0 0 0
0 0 0 0 0 0 0 0 0 0 0 0 0 0 0 0 0 0 0 0 0 0 0 0 0 0 0 0 0 0 0 0 0 0 0 0 0 0 0 0 0 0 0
0 0 0 0 0 0 0 0 0 0 0 0 0 0 0 0 0 0 0 0 0 0 0 0 0 0 0 0 0 0 0 0 0 0 0 0 0 0 0 0 0 0 0
0 0 0 0 0 0 0 0 0 0 0 0 0 0 0 0 0 0 0 0 0 0 0 0 0 0 0 0 0 0 0 0 0 0 0 0 0 0 0 0 0 0 0
0 0 0 0 0 0 0 0 0 0 0 0 0 0 0 0 0 0 0 0 0 0 0 0 0 0 0 0 0 0 0 0 0 0 0 0 0 0 0 0 0 0 0
0 0 0 0 0 0 0 0 0 0 0 0 0 0 0 0 0 0 0 0 0 0 0 0 0 0 0 0 0 0 0 0 0 0 0 0 0 0 0 0 0 0 0
1 1 1 1 1 1 0 0 0 0 0 0 0 0 0 0 0 0 0 0 0 0 0 0 0 0 0 0 0 0 0 0 0 0 0 0 0 0 0 0 0 0 0
1 1 1 1 1 1 1 0 0 0 0 0 0 0 0 0 0 0 0 0 0 0 0 0 0 0 0 0 0 0 0 0 0 0 0 0 0 0 0 0 0 0 0
1 1 1 1 1 1 1 1 0 0 0 0 0 0 0 0 0 0 0 0 0 0 0 0 0 0 0 0 0 0 0 0 0 0 0 0 0 0 0 0 0 0 0
1 1 1 1 1 1 1 1 1 1 1 1 1 1 0 0 0 0 0 0 0 0 0 0 0 0 0 0 0 0 0 0 0 0 0 0 0 0 0 0 1 1 1
1 1 1 1 1 1 1 1 1 1 1 1 1 1 1 1 0 0 0 0 0 0 0 0 0 0 0 0 0 0 0 0 0 0 0 0 0 0 0 0 1 1 1
1 1 1 1 1 1 1 1 1 1 1 1 1 1 1 1 1 0 0 0 0 0 0 0 0 0 0 0 0 0 0 0 0 0 0 0 0 0 0 0 1 1 1
1 1 1 2 2 2 1 1 1 1 1 1 1 1 1 1 1 1 1 1 1 0 0 0 0 0 0 0 0 0 0 0 0 0 0 0 0 0 0 0 1 1 1
Wind_Speed
9 10 11 10 8 7 7 7 7 6 6 6 6 7 7 8 8 9 10 11 10 10 9 8 8 8 8 7 6 6 6 6 7 7 7 7 7 6 5 4 3 4 7
10 11 12 10 9 7 7 6 7 6 6 6 6 7 8 8 9 9 10 10 9 9 8 8 8 8 8 8 7 6 6 5 5 6 6 6 6 5 4 3 3 4 6
10 11 11 10 9 8 7 7 7 6 6 6 7 8 8 9 9 9 10 9 9 8 8 8 8 8 8 7 7 6 6 5 5 5 5 4 5 5 4 5 5 5 5
10 10 11 11 10 9 7 6 6 6 6 6 7 8 8 8 9 9 10 9 9 8 7 8 8 8 7 7 6 6 5 4 4 4 3 3 3 6 6 5 5 5 4
10 10 12 11 10 9 7 6 5 6 6 6 7 8 8 8 9 9 9 9 8 8 7 7 7 7 7 6 5 5 4 3 3 3 1 3 3 5 6 6 5 5 4
11 12 13 11 10 9 7 6 5 6 6 6 7 7 8 8 8 8 8 8 8 8 7 6 6 6 6 5 5 3 3 3 3 3 2 3 4 5 5 5 5 4 4
10 12 12 11 9 9 7 6 6 6 6 7 7 7 7 8 7 7 8 8 8 7 7 6 6 5 5 4 4 3 2 2 3 1 3 3 4 7 6 6 5 4 4
11 11 11 11 10 9 7 7 7 7 7 7 7 7 7 7 7 7 7 7 7 7 7 6 5 5 5 4 4 3 3 3 2 2 3 4 6 7 6 5 5 4 4
11 10 9 9 9 9 7 7 7 7 7 7 7 7 7 7 7 7 7 7 7 7 6 6 5 5 5 5 4 4 4 4 3 2 4 4 7 7 7 6 5 5 4
9 8 8 8 7 7 7 7 7 8 8 7 6 6 6 6 7 7 7 7 7 7 6 6 5 5 6 5 5 5 5 3 3 2 3 5 8 8 7 6 6 5 4
7 7 6 7 6 5 6 7 7 8 7 6 5 5 5 3 4 5 7 8 7 7 7 6 5 6 6 6 7 6 4 2 2 2 3 6 7 7 7 6 5 4 4
5 6 6 5 5 4 4 5 4 5 5 4 3 3 3 2 2 4 7 8 7 6 7 7 6 5 5 3 5 6 3 4 2 2 4 7 7 7 7 6 5 4 4
5 4 6 5 4 4 3 3 2 3 3 3 3 3 2 1 2 3 3 4 4 5 4 5 5 4 3 2 2 3 3 2 1 2 5 7 6 6 6 5 5 5 4
5 5 5 6 5 3 3 2 2 2 3 3 2 2 2 1 1 2 1 2 3 2 3 3 2 2 2 2 2 2 2 2 2 2 5 8 7 6 5 5 4 5 5
6 5 6 6 5 3 2 1 3 2 2 4 3 2 2 2 2 2 1 0 1 1 2 2 2 2 1 1 1 1 1 1 2 2 4 8 8 7 6 5 5 5 5
6 6 6 6 5 3 3 2 2 2 2 3 3 3 2 2 2 1 1 1 0 1 1 2 2 2 1 1 1 1 1 1 2 2 3 5 8 8 6 6 6 6 6
6 7 6 6 6 4 3 2 2 2 3 3 3 3 2 2 2 1 2 1 1 1 1 1 2 2 2 2 1 1 2 2 2 2 3 3 4 7 8 7 7 6 6
6 6 5 5 7 4 3 2 1 2 2 2 3 3 3 2 2 1 1 2 1 1 1 1 1 1 1 1 1 1 1 2 3 3 3 3 3 4 7 8 8 6 6
7 6 5 4 6 5 3 2 1 2 2 2 2 2 2 2 2 1 1 1 1 1 1 1 2 1 1 0 1 1 1 2 2 2 2 3 3 3 3 5 8 7 6
8 7 6 4 4 4 3 2 1 2 2 2 2 2 3 1 2 1 2 1 1 1 1 1 1 1 1 1 1 0 1 2 2 2 2 2 2 2 2 4 4 5 6
8 7 6 5 4 3 2 2 2 2 2 2 2 3 3 2 2 1 1 1 1 1 1 1 1 1 1 0 0 1 1 1 1 1 1 1 1 1 2 3 2 2 4
9 8 7 5 5 3 2 1 1 1 1 2 2 3 3 2 2 2 1 1 1 1 1 0 0 0 1 1 0 1 0 1 1 1 1 1 1 1 1 2 2 2 2
10 9 7 6 5 5 4 2 1 1 1 1 2 2 2 2 2 1 2 1 1 1 2 1 1 0 0 0 0 0 0 0 1 1 0 1 1 0 1 1 2 2 2
10 10 8 7 6 5 4 3 3 3 2 2 2 2 3 3 2 2 2 2 1 1 1 2 1 1 1 1 0 0 1 0 0 1 1 1 0 0 0 0 1 2 2
10 10 9 7 6 5 4 4 3 2 2 2 2 2 3 3 3 3 3 2 2 1 1 1 1 1 1 1 1 0 0 1 1 0 1 1 1 1 0 1 1 1 2
10 10 10 8 6 6 5 4 3 3 2 2 2 2 2 2 3 3 3 2 2 1 1 1 1 2 1 1 1 1 1 1 1 0 1 1 1 1 1 1 1 1 1
Wind_Direction
106 111 114 106 104 100 99 99 97 95 97 91 97 107 111 112 115 118 125 127 130 131 133 135 136 138 139 134 132 130 127 121 113 115 115 110 107 109 112 122 137 115 113
108 113 117 110 105 98 97 99 101 98 95 92 97 108 115 119 120 121 123 126 130 130 130 132 131 131 135 135 137 140 142 139 141 136 132 126 125 123 123 120 105 106 115
106 115 119 112 108 103 100 99 100 100 98 97 100 111 118 120 125 127 129 129 130 130 131 134 131 130 130 129 133 143 152 161 165 161 163 157 143 142 137 120 114 122 127
112 115 112 115 112 109 103 101 102 104 104 104 108 113 120 123 127 130 131 131 128 127 130 133 132 131 130 129 131 139 152 170 184 185 198 177 145 137 140 135 133 135 136
112 113 114 120 118 114 108 105 107 110 113 110 115 117 120 124 126 127 130 131 129 130 130 131 131 130 129 129 132 140 160 180 192 217 207 112 103 127 139 138 137 138 135
112 112 118 122 123 120 114 111 114 114 117 122 122 122 121 122 124 126 129 132 131 129 128 129 129 132 133 131 133 149 170 191 213 213 152 115 119 136 137 139 144 146 143
106 110 120 123 126 123 113 110 115 120 121 124 125 125 125 126 127 127 130 134 133 134 132 130 134 139 138 139 146 169 198 215 240 183 131 123 133 142 140 143 145 152 151
105 109 120 125 124 120 115 111 116 125 127 127 127 130 130 131 132 132 135 137 137 137 137 138 144 148 150 156 171 188 205 234 233 177 137 122 130 138 143 151 157 158 156
100 110 124 130 132 130 127 124 129 137 136 132 133 137 141 145 144 143 141 142 145 145 146 150 157 162 164 172 181 192 206 229 259 227 145 128 141 145 148 157 162 163 161
103 113 126 127 126 138 140 143 144 140 139 139 145 153 158 163 161 159 151 148 153 155 159 163 172 178 176 181 194 206 215 237 231 202 116 127 144 148 155 161 161 165 167
93 100 108 112 123 134 136 136 153 148 146 152 159 167 175 180 159 158 150 151 163 169 173 178 187 191 189 195 203 209 219 224 205 139 105 132 146 153 161 166 170 174 177
97 106 106 106 118 125 118 132 151 150 144 161 144 162 180 158 133 133 141 155 167 177 182 187 196 198 210 203 196 201 211 206 195 142 127 147 153 161 167 173 179 189 196
109 102 104 108 98 97 101 135 136 127 135 143 127 136 127 127 126 130 147 158 174 182 187 179 199 206 200 189 179 186 208 202 149 128 136 149 155 165 172 182 193 200 210
121 113 105 104 91 75 96 109 119 120 127 127 129 113 118 115 99 103 128 153 169 167 163 157 178 177 174 184 180 181 188 176 149 129 143 154 159 166 177 192 204 208 217
120 113 102 103 100 96 87 77 100 98 116 121 119 113 116 114 96 92 87 91 146 141 144 147 151 148 156 198 199 170 163 168 155 156 146 163 167 173 184 196 203 208 216
135 122 113 113 107 110 115 107 109 111 112 114 115 117 116 114 118 138 144 127 87 106 130 155 159 159 182 174 160 180 180 180 158 158 157 169 179 182 193 202 206 210 216
133 121 126 124 118 119 118 123 118 128 112 112 117 123 120 125 141 161 148 145 161 150 144 161 168 170 176 162 166 181 175 186 174 180 181 172 183 197 205 207 208 208 211
134 127 132 131 124 121 110 96 82 94 104 117 119 119 125 128 135 168 141 135 165 154 161 162 168 170 129 142 181 193 173 176 188 197 192 180 184 195 203 211 209 203 201
132 127 127 122 126 134 137 139 135 99 93 103 111 121 131 147 148 155 119 119 180 147 149 147 114 113 147 200 214 189 196 192 204 203 204 188 181 191 178 190 197 200 200
139 131 134 136 126 139 142 151 152 129 128 128 122 119 130 144 136 131 129 137 167 117 99 88 117 167 206 219 268 301 214 191 196 179 214 188 174 188 172 167 177 191 195
145 141 142 148 139 142 144 161 168 157 163 157 150 138 142 157 158 163 101 145 166 123 134 126 127 174 207 191 358 323 292 219 158 163 207 175 170 185 170 157 163 165 178
152 149 147 155 149 155 156 157 149 158 175 158 142 137 153 167 176 179 161 193 166 160 142 159 179 262 230 160 156 252 283 343 320 224 163 178 170 173 178 164 164 163 165
162 160 163 164 160 169 168 166 178 147 167 141 148 149 171 172 181 239 161 211 200 195 159 192 208 182 279 287 121 153 276 252 285 317 244 163 133 191 211 177 156 158 160
167 164 158 161 166 166 173 179 184 178 185 176 178 163 175 182 188 195 194 197 228 231 157 193 169 234 227 264 262 195 222 198 249 317 323 14 304 251 249 53 115 136 138
170 164 159 159 166 166 178 182 200 195 184 184 182 164 174 183 191 197 197 197 206 221 206 211 156 240 253 271 296 271 266 255 245 219 312 314 290 256 238 184 160 138 147
170 166 162 156 163 170 179 186 197 209 206 199 201 175 196 190 191 195 187 191 201 207 217 212 198 230 267 308 310 302 286 264 275 217 228 246 261 260 223 203 165 140 135